EW7987 Weather Reports


time (UTC)temp
C
wind
direction
speed
KPH
gust
KPH
rain 1hr
cm
rain 24hr
cm
rain mn
cm
humidity
%
barometer
mb
20260505014012 14 360 0.0 1.6 0.00 0.00 0.00 55 1005.4
20260505013512 15 360 0.0 1.6 0.00 0.00 0.00 54 1005.4
20260505013012 15 360 0.0 0.0 0.00 0.00 0.00 54 1005.4
20260505012512 15 360 0.0 0.0 0.00 0.00 0.00 54 1005.4
20260505012013 15 360 0.0 0.0 0.00 0.00 0.00 53 1005.3
20260505011517 15 360 0.0 0.0 0.00 0.00 0.00 53 1005.2
20260505011011 15 360 0.0 0.0 0.00 0.00 0.00 52 1005.1
20260505010511 15 360 0.0 0.0 0.00 0.00 0.00 52 1005.1
20260505010011 15 360 0.0 6.4 0.00 0.00 0.00 51 1004.9
20260505005514 15 360 0.0 8.0 0.00 0.00 0.00 51 1005.0
20260505005011 15 360 0.0 8.0 0.00 0.00 0.00 50 1004.8
20260505004523 15 360 0.0 4.8 0.00 0.00 0.00 50 1004.8
20260505004010 16 360 0.0 4.8 0.00 0.00 0.00 49 1004.7
20260505003514 16 360 0.0 1.6 0.00 0.00 0.00 49 1004.5
20260505003010 16 360 0.0 1.6 0.00 0.00 0.00 49 1004.4
20260505002510 16 360 0.0 1.6 0.00 0.00 0.00 49 1004.2
20260505002010 16 360 0.0 0.0 0.00 0.00 0.00 48 1004.2
20260505001510 16 360 0.0 1.6 0.00 0.00 0.00 48 1004.1
20260505001013 16 360 0.0 4.8 0.00 0.00 0.00 48 1004.0
20260505000508 16 360 0.0 14.5 0.00 0.00 0.00 47 1003.9
20260505000014 16 360 0.0 6.4 0.00 0.00 0.00 47 1003.8
20260504235509 17 360 0.0 3.2 0.00 0.00 0.00 47 1003.6
20260504235008 17 360 0.0 6.4 0.00 0.00 0.00 46 1003.5
20260504234508 17 360 0.0 16.1 0.00 0.00 0.00 46 1003.4
20260504234007 17 360 0.0 16.1 0.00 0.00 0.00 46 1003.4
20260504233507 17 360 0.0 12.9 0.00 0.00 0.00 45 1003.3
20260504233007 17 360 0.0 3.2 0.00 0.00 0.00 44 1003.2
20260504232506 18 360 0.0 6.4 0.00 0.00 0.00 45 1003.2
20260504232006 18 360 0.0 8.0 0.00 0.00 0.00 43 1003.1
20260504231519 18 360 1.6 8.0 0.00 0.00 0.00 43 1002.9
20260504231006 18 360 0.0 4.8 0.00 0.00 0.00 42 1002.8
20260504230506 18 360 0.0 9.7 0.00 0.00 0.00 41 1002.8
20260504230005 19 360 0.0 12.9 0.00 0.00 0.00 40 1002.8
20260504225511 19 360 0.0 14.5 0.00 0.00 0.00 40 1002.8
20260504225004 19 360 0.0 12.9 0.00 0.00 0.00 39 1002.6
20260504224504 20 360 0.0 12.9 0.00 0.00 0.00 39 1002.6
20260504224003 20 360 0.0 12.9 0.00 0.00 0.00 37 1002.4
20260504223503 20 360 0.0 3.2 0.00 0.00 0.00 37 1002.3
20260504223003 20 360 0.0 3.2 0.00 0.00 0.00 35 1002.3
20260504222505 21 360 0.0 9.7 0.00 0.00 0.00 35 1002.3
20260504222002 21 360 0.0 9.7 0.00 0.00 0.00 33 1002.2
20260504221501 21 360 0.0 6.4 0.00 0.00 0.00 35 1002.2
20260504221001 21 360 0.0 8.0 0.00 0.00 0.00 34 1002.3
20260504220501 21 360 0.0 14.5 0.00 0.00 0.00 33 1002.2
20260504220100 21 360 0.0 14.5 0.00 0.00 0.00 32 1002.3
20260504220001 21 360 0.0 14.5 0.00 0.00 0.00 33 1002.2
20260504215600 21 360 0.0 1.6 0.00 0.00 0.00 33 1002.3
20260504215059 21 360 0.0 1.6 0.00 0.00 0.00 32 1002.3
20260504214603 21 360 0.0 4.8 0.00 0.00 0.00 33 1002.3
20260504214058 21 360 0.0 8.0 0.00 0.00 0.00 31 1002.3
20260504213558 21 360 0.0 8.0 0.00 0.00 0.00 32 1002.4
20260504213104 21 360 0.0 12.9 0.00 0.00 0.00 31 1002.4
20260504212558 21 360 0.0 12.9 0.00 0.00 0.00 32 1002.4
20260504212059 21 360 0.0 6.4 0.00 0.00 0.00 31 1002.4
20260504211559 21 360 0.0 6.4 0.00 0.00 0.00 33 1002.4
20260504211056 21 360 0.0 17.7 0.00 0.00 0.00 32 1002.4
20260504210556 21 360 0.0 17.7 0.00 0.00 0.00 31 1002.4
20260504205558 22 360 0.0 14.5 0.00 0.00 0.00 31 1002.2
20260504205058 22 360 0.0 14.5 0.00 0.00 0.00 31 1002.2
20260504204635 22 360 0.0 9.7 0.00 0.00 0.00 31 1002.3
20260504204054 22 360 0.0 16.1 0.00 0.00 0.00 32 1002.3
20260504203554 22 360 0.0 16.1 0.00 0.00 0.00 30 1002.3
20260504203054 21 360 0.0 14.5 0.00 0.00 0.00 32 1002.3
20260504202553 21 360 0.0 22.5 0.00 0.00 0.00 30 1002.4
20260504202053 22 360 0.0 22.5 0.00 0.00 0.00 30 1002.4
20260504201552 21 360 0.0 20.9 0.00 0.00 0.00 30 1002.5
20260504201052 21 360 0.0 20.9 0.00 0.00 0.00 32 1002.3
20260504200552 21 360 1.6 20.9 0.00 0.00 0.00 31 1002.4
20260504200055 22 360 0.0 20.9 0.00 0.00 0.00 31 1002.5
20260504195551 22 360 0.0 22.5 0.00 0.00 0.00 30 1002.5
20260504195053 22 360 1.6 20.9 0.00 0.00 0.00 30 1002.5
20260504194553 22 360 0.0 14.5 0.00 0.00 0.00 31 1002.4
20260504194050 22 360 0.0 19.3 0.00 0.00 0.00 30 1002.4
20260504193552 22 360 0.0 8.0 0.00 0.00 0.00 30 1002.4
20260504193049 22 360 0.0 6.4 0.00 0.00 0.00 29 1002.5
20260504192550 22 248 0.0 14.5 0.00 0.00 0.00 29 1002.6
20260504192048 22 360 0.0 14.5 0.00 0.00 0.00 28 1002.5
20260504191548 22 360 0.0 14.5 0.00 0.00 0.00 29 1002.5
20260504191047 22 360 0.0 16.1 0.00 0.00 0.00 30 1002.7
20260504190547 22 360 0.0 16.1 0.00 0.00 0.00 28 1002.7
20260504190056 22 360 0.0 19.3 0.00 0.00 0.00 29 1002.7
20260504185545 22 360 0.0 16.1 0.00 0.00 0.00 28 1002.8
20260504185044 22 360 1.6 16.1 0.00 0.00 0.00 32 1002.8
20260504184559 22 360 1.6 19.3 0.00 0.00 0.00 29 1003.0
20260504184043 22 360 1.6 19.3 0.00 0.00 0.00 29 1002.9
20260504183544 22 360 1.6 17.7 0.00 0.00 0.00 29 1003.2
20260504183050 22 360 0.0 12.9 0.00 0.00 0.00 29 1003.2
20260504182546 22 360 0.0 25.7 0.00 0.00 0.00 30 1003.0
20260504182042 22 360 3.2 25.7 0.00 0.00 0.00 28 1003.2
20260504181541 22 360 1.6 16.1 0.00 0.00 0.00 31 1003.1
20260504181039 22 360 0.0 14.5 0.00 0.00 0.00 31 1003.2
20260504180538 21 360 0.0 30.6 0.00 0.00 0.00 31 1003.2
20260504180037 21 360 3.2 30.6 0.00 0.00 0.00 32 1003.2
20260504175537 21 360 0.0 17.7 0.00 0.00 0.00 30 1003.3
20260504175037 21 360 1.6 17.7 0.00 0.00 0.00 30 1003.2
20260504174536 21 360 0.0 20.9 0.00 0.00 0.00 32 1003.3
20260504174036 21 360 1.6 24.1 0.00 0.00 0.00 29 1003.4
20260504173536 21 360 3.2 24.1 0.00 0.00 0.00 31 1003.6
20260504173035 21 360 4.8 24.1 0.00 0.00 0.00 30 1003.6
20260504172535 21 360 1.6 22.5 0.00 0.00 0.00 33 1003.6
20260504172034 21 360 0.0 20.9 0.00 0.00 0.00 32 1003.5
20260504171541 21 360 1.6 20.9 0.00 0.00 0.00 32 1003.8
20260504171035 21 360 0.0 9.7 0.00 0.00 0.00 32 1003.6
20260504170533 21 360 0.0 17.7 0.00 0.00 0.00 32 1003.4
20260504151014 19 360 1.6 19.3 0.00 0.00 0.00 35 1005.0
20260504150515 19 360 0.0 16.1 0.00 0.00 0.00 35 1004.9
20260504141102 17 360 0.0 16.1 0.00 0.00 0.00 42 1005.3
20260504140559 16 360 0.0 16.1 0.00 0.00 0.00 45 1005.2
20260504130542 12 360 0.0 0.0 0.00 0.00 0.00 51 1006.2
20260504110516 8 360 0.0 1.6 0.00 0.00 0.00 58 1006.3
20260504100507 7 228 0.0 1.6 0.00 0.00 0.00 59 1006.3
20260504082002 7 237 0.0 0.0 0.00 0.00 0.00 59 1006.2
20260504081503 7 237 0.0 0.0 0.00 0.00 0.00 58 1006.3
20260504081002 7 237 0.0 0.0 0.00 0.00 0.00 58 1006.3
20260504080502 7 237 0.0 0.0 0.00 0.00 0.00 57 1006.2
20260504070105 7 236 0.0 0.0 0.00 0.00 0.00 58 1005.8
20260504050544 5 360 0.0 0.0 0.00 0.00 0.00 60 1006.0
20260504045543 5 360 0.0 0.0 0.00 0.00 0.00 62 1006.1
20260504045040 5 360 0.0 0.0 0.00 0.00 0.00 64 1006.2
20260504044542 5 360 0.0 0.0 0.00 0.00 0.00 63 1006.2
20260504044038 4 360 0.0 0.0 0.00 0.00 0.00 64 1006.3
20260504043537 4 360 0.0 0.0 0.00 0.00 0.00 64 1006.2
20260504043038 4 360 0.0 0.0 0.00 0.00 0.00 64 1006.2
20260504042536 4 360 0.0 0.0 0.00 0.00 0.00 64 1006.2
20260504042036 4 360 0.0 0.0 0.00 0.00 0.00 65 1006.0
20260504041534 3 360 0.0 1.6 0.00 0.00 0.00 66 1006.0
20260504041033 4 360 0.0 0.0 0.00 0.00 0.00 67 1006.0
20260504040532 4 360 0.0 0.0 0.00 0.00 0.00 68 1005.9
20260504040031 4 360 0.0 0.0 0.00 0.00 0.00 68 1005.9
20260504035533 4 360 0.0 0.0 0.00 0.00 0.00 68 1005.8
20260504035032 4 360 0.0 0.0 0.00 0.00 0.00 69 1005.8
20260504034530 4 360 0.0 0.0 0.00 0.00 0.00 68 1005.8
20260504034029 5 360 0.0 0.0 0.00 0.00 0.00 66 1005.8
20260504033532 5 360 0.0 0.0 0.00 0.00 0.00 66 1005.8
20260504033029 5 360 0.0 0.0 0.00 0.00 0.00 65 1005.7
20260504032529 5 360 0.0 0.0 0.00 0.00 0.00 64 1005.7
20260504032029 5 360 0.0 0.0 0.00 0.00 0.00 63 1005.6
20260504031530 5 360 0.0 0.0 0.00 0.00 0.00 62 1005.6
20260504031030 5 360 0.0 0.0 0.00 0.00 0.00 62 1005.6
20260504030529 5 360 0.0 0.0 0.00 0.00 0.00 61 1005.6
20260504030037 5 360 0.0 0.0 0.00 0.00 0.00 60 1005.6
20260504025530 5 360 0.0 0.0 0.00 0.00 0.00 60 1005.6
20260504025032 5 360 0.0 0.0 0.00 0.00 0.00 60 1005.6
20260504024529 5 360 0.0 0.0 0.00 0.00 0.00 60 1005.5
20260504024031 5 360 0.0 0.0 0.00 0.00 0.00 60 1005.6
20260504023529 5 360 0.0 0.0 0.00 0.00 0.00 60 1005.6
20260504023028 5 360 0.0 0.0 0.00 0.00 0.00 60 1005.6
20260504022528 5 360 0.0 0.0 0.00 0.00 0.00 60 1005.5
20260504022028 5 360 0.0 0.0 0.00 0.00 0.00 60 1005.5
20260504021531 6 360 0.0 0.0 0.00 0.00 0.00 61 1005.6
20260504021031 6 360 0.0 0.0 0.00 0.00 0.00 61 1005.5
20260504020527 6 360 0.0 0.0 0.00 0.00 0.00 61 1005.5
20260504020027 6 360 0.0 0.0 0.00 0.00 0.00 60 1005.5
20260504015527 6 360 0.0 0.0 0.00 0.00 0.00 60 1005.5
20260504015030 6 360 0.0 0.0 0.00 0.00 0.00 59 1005.4
20260504014527 6 360 0.0 0.0 0.00 0.00 0.00 60 1005.4